�v������,,�����i�g�j,�����t���O,�g�[�i�g�j,�����t���O,,�����iMJ�j,�����t���O,�g�[�iMJ�j,�����t���O
2002/11/1,0:00:00,0,0,0,0,,0,0,0,0
2002/11/1,0:15:00,0,0,0,0,,0,0,0,0
2002/11/1,0:30:00,0,0,0,0,,0,0,0,0
2002/11/1,0:45:00,0,0,0,0,,0,0,0,0
2002/11/1,1:00:00,0,0,0,0,,0,0,0,0
2002/11/1,1:15:00,0,0,0,0,,0,0,0,0
2002/11/1,1:30:00,0,0,0,0,,0,0,0,0
2002/11/1,1:45:00,0,0,0,0,,0,0,0,0
2002/11/1,2:00:00,0,0,0,0,,0,0,0,0
2002/11/1,2:15:00,0,0,0,0,,0,0,0,0
2002/11/1,2:30:00,0,0,0,0,,0,0,0,0
2002/11/1,2:45:00,0,0,0,0,,0,0,0,0
2002/11/1,3:00:00,0,0,0,0,,0,0,0,0
2002/11/1,3:15:00,0,0,0,0,,0,0,0,0
2002/11/1,3:30:00,0,0,0,0,,0,0,0,0
2002/11/1,3:45:00,0,0,0,0,,0,0,0,0
2002/11/1,4:00:00,0,0,0,0,,0,0,0,0
2002/11/1,4:15:00,0,0,0,0,,0,0,0,0
2002/11/1,4:30:00,0,0,0,0,,0,0,0,0
2002/11/1,4:45:00,0,0,0,0,,0,0,0,0
2002/11/1,5:00:00,0,0,0,0,,0,0,0,0
2002/11/1,5:15:00,0,0,0,0,,0,0,0,0
2002/11/1,5:30:00,0,0,0,0,,0,0,0,0
2002/11/1,5:45:00,0,0,0,0,,0,0,0,0
2002/11/1,6:00:00,0,0,0,0,,0,0,0,0
2002/11/1,6:15:00,0,0,0,0,,0,0,0,0
2002/11/1,6:30:00,0,0,0,0,,0,0,0,0
2002/11/1,6:45:00,0,0,0,0,,0,0,0,0
2002/11/1,7:00:00,0,0,0,0,,0,0,0,0
2002/11/1,7:15:00,0.462,0,0,0,,17,0,0,0
2002/11/1,7:30:00,0.241,0,0.208,0,,8.9,0,7.6,0
2002/11/1,7:45:00,0.467,0,0.138,0,,17.1,0,5.1,0
2002/11/1,8:00:00,0,0,0.089,0,,0,0,3.3,0
2002/11/1,8:15:00,0,0,0.163,0,,0,0,6,0
2002/11/1,8:30:00,0,0,0,0,,0,0,0,0
2002/11/1,8:45:00,0,0,0,0,,0,0,0,0
2002/11/1,9:00:00,0,0,0,0,,0,0,0,0
2002/11/1,9:15:00,0,0,0,0,,0,0,0,0
2002/11/1,9:30:00,0,0,0,0,,0,0,0,0
2002/11/1,9:45:00,0,0,0,0,,0,0,0,0
2002/11/1,10:00:00,0,0,0,0,,0,0,0,0
2002/11/1,10:15:00,0,0,0,0,,0,0,0,0
2002/11/1,10:30:00,0,0,0,0,,0,0,0,0
2002/11/1,10:45:00,0,0,0,0,,0,0,0,0
2002/11/1,11:00:00,0,0,0,0,,0,0,0,0
2002/11/1,11:15:00,0,0,0,0,,0,0,0,0
2002/11/1,11:30:00,0,0,0,0,,0,0,0,0
2002/11/1,11:45:00,0,0,0,0,,0,0,0,0
2002/11/1,12:00:00,0,0,0,0,,0,0,0,0
2002/11/1,12:15:00,0,0,0,0,,0,0,0,0
2002/11/1,12:30:00,0,0,0,0,,0,0,0,0
2002/11/1,12:45:00,0,0,0,0,,0,0,0,0
2002/11/1,13:00:00,0,0,0,0,,0,0,0,0
2002/11/1,13:15:00,0,0,0,0,,0,0,0,0
2002/11/1,13:30:00,0,0,0,0,,0,0,0,0
2002/11/1,13:45:00,0,0,0,0,,0,0,0,0
2002/11/1,14:00:00,0,0,0,0,,0,0,0,0
2002/11/1,14:15:00,0,0,0,0,,0,0,0,0
2002/11/1,14:30:00,0,0,0,0,,0,0,0,0
2002/11/1,14:45:00,0,0,0,0,,0,0,0,0
2002/11/1,15:00:00,0,0,0,0,,0,0,0,0
2002/11/1,15:15:00,0,0,0,0,,0,0,0,0
2002/11/1,15:30:00,0,0,0,0,,0,0,0,0
2002/11/1,15:45:00,0,0,0,0,,0,0,0,0
2002/11/1,16:00:00,0,0,0,0,,0,0,0,0
2002/11/1,16:15:00,0,0,0,0,,0,0,0,0
2002/11/1,16:30:00,0,0,0,0,,0,0,0,0
2002/11/1,16:45:00,0,0,0,0,,0,0,0,0
2002/11/1,17:00:00,0,0,0,0,,0,0,0,0
2002/11/1,17:15:00,0,0,0,0,,0,0,0,0
2002/11/1,17:30:00,0,0,0,0,,0,0,0,0
2002/11/1,17:45:00,0,0,0.076,0,,0,0,2.8,0
2002/11/1,18:00:00,0.198,0,0.183,0,,7.3,0,6.7,0
2002/11/1,18:15:00,0,0,0.145,0,,0,0,5.4,0
2002/11/1,18:30:00,0,0,0.045,0,,0,0,1.7,0
2002/11/1,18:45:00,0,0,0.043,0,,0,0,1.6,0
2002/11/1,19:00:00,0,0,0,0,,0,0,0,0
2002/11/1,19:15:00,0,0,0.021,0,,0,0,0.8,0
2002/11/1,19:30:00,0,0,0.051,0,,0,0,1.9,0
2002/11/1,19:45:00,0,0,0,0,,0,0,0,0
2002/11/1,20:00:00,0,0,0.069,0,,0,0,2.5,0
2002/11/1,20:15:00,0,0,0,0,,0,0,0,0
2002/11/1,20:30:00,0.16,0,0.114,0,,5.9,0,4.2,0
2002/11/1,20:45:00,0,0,0.262,0,,0,0,9.6,0
2002/11/1,21:00:00,0,0,0.255,0,,0,0,9.2,0
2002/11/1,21:15:00,0,0,0.196,0,,0,0,7.2,0
2002/11/1,21:30:00,0,0,0.161,0,,0,0,5.9,0
2002/11/1,21:45:00,0,0,0.009,0,,0,0,0.3,0
2002/11/1,22:00:00,0,0,0,0,,0,0,0,0
2002/11/1,22:15:00,0,0,0,0,,0,0,0,0
2002/11/1,22:30:00,0,0,0,0,,0,0,0,0
2002/11/1,22:45:00,0,0,0,0,,0,0,0,0
2002/11/1,23:00:00,0,0,0,0,,0,0,0,0
2002/11/1,23:15:00,0,0,0,0,,0,0,0,0
2002/11/1,23:30:00,0,0,0,0,,0,0,0,0
2002/11/1,23:45:00,0,0,0,0,,0,0,0,0
2002/11/2,0:00:00,0,0,0,0,,0,0,0,0
2002/11/2,0:15:00,0,0,0,0,,0,0,0,0
2002/11/2,0:30:00,0,0,0,0,,0,0,0,0
2002/11/2,0:45:00,0,0,0,0,,0,0,0,0
2002/11/2,1:00:00,0,0,0,0,,0,0,0,0
2002/11/2,1:15:00,0,0,0,0,,0,0,0,0
2002/11/2,1:30:00,0,0,0,0,,0,0,0,0
2002/11/2,1:45:00,0,0,0,0,,0,0,0,0
2002/11/2,2:00:00,0,0,0,0,,0,0,0,0
2002/11/2,2:15:00,0,0,0,0,,0,0,0,0
2002/11/2,2:30:00,0,0,0,0,,0,0,0,0
2002/11/2,2:45:00,0,0,0,0,,0,0,0,0
2002/11/2,3:00:00,0,0,0,0,,0,0,0,0
2002/11/2,3:15:00,0,0,0,0,,0,0,0,0
2002/11/2,3:30:00,0,0,0,0,,0,0,0,0
2002/11/2,3:45:00,0,0,0,0,,0,0,0,0
2002/11/2,4:00:00,0,0,0,0,,0,0,0,0
2002/11/2,4:15:00,0,0,0,0,,0,0,0,0
2002/11/2,4:30:00,0,0,0,0,,0,0,0,0
2002/11/2,4:45:00,0,0,0,0,,0,0,0,0
2002/11/2,5:00:00,0,0,0,0,,0,0,0,0
2002/11/2,5:15:00,0,0,0,0,,0,0,0,0
2002/11/2,5:30:00,0,0,0,0,,0,0,0,0
2002/11/2,5:45:00,0,0,0,0,,0,0,0,0
2002/11/2,6:00:00,0,0,0,0,,0,0,0,0
2002/11/2,6:15:00,0,0,0,0,,0,0,0,0
2002/11/2,6:30:00,0.156,0,0.259,0,,5.7,0,9.5,0
2002/11/2,6:45:00,0,0,0.293,0,,0,0,10.8,0
2002/11/2,7:00:00,0,0,0.221,0,,0,0,8.1,0
2002/11/2,7:15:00,0,0,0.138,0,,0,0,5.1,0
2002/11/2,7:30:00,0,0,0.153,0,,0,0,5.6,0
2002/11/2,7:45:00,0,0,0.189,0,,0,0,6.9,0
2002/11/2,8:00:00,0,0,0.147,0,,0,0,5.4,0
2002/11/2,8:15:00,0,0,0.21,0,,0,0,7.7,0
2002/11/2,8:30:00,0,0,0.219,0,,0,0,8,0
2002/11/2,8:45:00,0,0,0.207,0,,0,0,7.6,0
2002/11/2,9:00:00,0,0,0.21,0,,0,0,7.7,0
2002/11/2,9:15:00,0,0,0.163,0,,0,0,6,0
2002/11/2,9:30:00,0,0,0,0,,0,0,0,0
2002/11/2,9:45:00,0,0,0.128,0,,0,0,4.7,0
2002/11/2,10:00:00,0.324,0,0,0,,11.9,0,0,0
2002/11/2,10:15:00,0,0,0,0,,0,0,0,0
2002/11/2,10:30:00,0,0,0,0,,0,0,0,0
2002/11/2,10:45:00,0,0,0,0,,0,0,0,0
2002/11/2,11:00:00,0,0,0,0,,0,0,0,0
2002/11/2,11:15:00,0,0,0,0,,0,0,0,0
2002/11/2,11:30:00,0,0,0,0,,0,0,0,0
2002/11/2,11:45:00,0,0,0,0,,0,0,0,0
2002/11/2,12:00:00,0,0,0,0,,0,0,0,0
2002/11/2,12:15:00,0,0,0,0,,0,0,0,0
2002/11/2,12:30:00,0,0,0,0,,0,0,0,0
2002/11/2,12:45:00,0,0,0,0,,0,0,0,0
2002/11/2,13:00:00,0,0,0,0,,0,0,0,0
2002/11/2,13:15:00,0,0,0,0,,0,0,0,0
2002/11/2,13:30:00,0,0,0,0,,0,0,0,0
2002/11/2,13:45:00,0,0,0,0,,0,0,0,0
2002/11/2,14:00:00,0,0,0,0,,0,0,0,0
2002/11/2,14:15:00,0,0,0,0,,0,0,0,0
2002/11/2,14:30:00,0,0,0,0,,0,0,0,0
2002/11/2,14:45:00,0,0,0,0,,0,0,0,0
2002/11/2,15:00:00,0,0,0,0,,0,0,0,0
2002/11/2,15:15:00,0,0,0,0,,0,0,0,0
2002/11/2,15:30:00,0,0,0,0,,0,0,0,0
2002/11/2,15:45:00,0,0,0,0,,0,0,0,0
2002/11/2,16:00:00,0,0,0,0,,0,0,0,0
2002/11/2,16:15:00,0,0,0,0,,0,0,0,0
2002/11/2,16:30:00,0,0,0,0,,0,0,0,0
2002/11/2,16:45:00,0,0,0,0,,0,0,0,0
2002/11/2,17:00:00,0.61,0,0,0,,22.3,0,0,0
2002/11/2,17:15:00,0.463,0,0.072,0,,17,0,2.6,0
2002/11/2,17:30:00,0,0,0.043,0,,0,0,1.6,0
2002/11/2,17:45:00,0,0,0.066,0,,0,0,2.4,0
2002/11/2,18:00:00,0,0,0,0,,0,0,0,0
2002/11/2,18:15:00,0,0,0.074,0,,0,0,2.7,0
2002/11/2,18:30:00,0,0,0,0,,0,0,0,0
2002/11/2,18:45:00,0,0,0.009,0,,0,0,0.3,0
2002/11/2,19:00:00,0,0,0.046,0,,0,0,1.7,0
2002/11/2,19:15:00,0,0,0,0,,0,0,0,0
2002/11/2,19:30:00,0,0,0.039,0,,0,0,1.4,0
2002/11/2,19:45:00,0,0,0.062,0,,0,0,2.3,0
2002/11/2,20:00:00,0,0,0,0,,0,0,0,0
2002/11/2,20:15:00,0,0,0,0,,0,0,0,0
2002/11/2,20:30:00,0,0,0,0,,0,0,0,0
2002/11/2,20:45:00,0,0,0,0,,0,0,0,0
2002/11/2,21:00:00,0,0,0,0,,0,0,0,0
2002/11/2,21:15:00,0,0,0,0,,0,0,0,0
2002/11/2,21:30:00,0,0,0.07,0,,0,0,2.6,0
2002/11/2,21:45:00,0,0,0.004,0,,0,0,0.1,0
2002/11/2,22:00:00,0.17,0,0.129,0,,6.2,0,4.7,0
2002/11/2,22:15:00,0,0,0.268,0,,0,0,9.9,0
2002/11/2,22:30:00,0,0,0.243,0,,0,0,8.9,0
2002/11/2,22:45:00,0,0,0.267,0,,0,0,9.8,0
2002/11/2,23:00:00,0.18,0,0.145,0,,6.6,0,5.3,0
2002/11/2,23:15:00,0.176,0,0.162,0,,6.5,0,5.9,0
2002/11/2,23:30:00,0,0,0,0,,0,0,0,0
2002/11/2,23:45:00,0,0,0,0,,0,0,0,0
2002/11/3,0:00:00,0,0,0,0,,0,0,0,0
2002/11/3,0:15:00,0,0,0,0,,0,0,0,0
2002/11/3,0:30:00,0,0,0,0,,0,0,0,0
2002/11/3,0:45:00,0,0,0,0,,0,0,0,0
2002/11/3,1:00:00,0,0,0,0,,0,0,0,0
2002/11/3,1:15:00,0,0,0,0,,0,0,0,0
2002/11/3,1:30:00,0,0,0,0,,0,0,0,0
2002/11/3,1:45:00,0,0,0,0,,0,0,0,0
2002/11/3,2:00:00,0,0,0,0,,0,0,0,0
2002/11/3,2:15:00,0,0,0,0,,0,0,0,0
2002/11/3,2:30:00,0,0,0,0,,0,0,0,0
2002/11/3,2:45:00,0,0,0,0,,0,0,0,0
2002/11/3,3:00:00,0,0,0,0,,0,0,0,0
2002/11/3,3:15:00,0,0,0,0,,0,0,0,0
2002/11/3,3:30:00,0,0,0,0,,0,0,0,0
2002/11/3,3:45:00,0,0,0,0,,0,0,0,0
2002/11/3,4:00:00,0,0,0,0,,0,0,0,0
2002/11/3,4:15:00,0,0,0,0,,0,0,0,0
2002/11/3,4:30:00,0,0,0,0,,0,0,0,0
2002/11/3,4:45:00,0,0,0,0,,0,0,0,0
2002/11/3,5:00:00,0,0,0,0,,0,0,0,0
2002/11/3,5:15:00,0,0,0,0,,0,0,0,0
2002/11/3,5:30:00,0,0,0,0,,0,0,0,0
2002/11/3,5:45:00,0,0,0,0,,0,0,0,0
2002/11/3,6:00:00,0,0,0,0,,0,0,0,0
2002/11/3,6:15:00,0,0,0,0,,0,0,0,0
2002/11/3,6:30:00,0,0,0,0,,0,0,0,0
2002/11/3,6:45:00,0,0,0,0,,0,0,0,0
2002/11/3,7:00:00,0,0,0,0,,0,0,0,0
2002/11/3,7:15:00,0,0,0.07,0,,0,0,2.6,0
2002/11/3,7:30:00,0.153,0,0.296,0,,5.6,0,10.8,0
2002/11/3,7:45:00,0,0,0.255,0,,0,0,9.4,0
2002/11/3,8:00:00,0,0,0.238,0,,0,0,8.7,0
2002/11/3,8:15:00,0,0,0.214,0,,0,0,7.8,0
2002/11/3,8:30:00,0,0,0.208,0,,0,0,7.6,0
2002/11/3,8:45:00,0,0,0.202,0,,0,0,7.4,0
2002/11/3,9:00:00,0,0,0.065,0,,0,0,2.4,0
2002/11/3,9:15:00,0,0,0,0,,0,0,0,0
2002/11/3,9:30:00,0,0,0.025,0,,0,0,0.9,0
2002/11/3,9:45:00,0,0,0,0,,0,0,0,0
2002/11/3,10:00:00,0,0,0,0,,0,0,0,0
2002/11/3,10:15:00,0,0,0,0,,0,0,0,0
2002/11/3,10:30:00,0,0,0,0,,0,0,0,0
2002/11/3,10:45:00,0,0,0,0,,0,0,0,0
2002/11/3,11:00:00,0,0,0,0,,0,0,0,0
2002/11/3,11:15:00,0,0,0,0,,0,0,0,0
2002/11/3,11:30:00,0,0,0,0,,0,0,0,0
2002/11/3,11:45:00,0,0,0,0,,0,0,0,0
2002/11/3,12:00:00,0,0,0,0,,0,0,0,0
2002/11/3,12:15:00,0,0,0,0,,0,0,0,0
2002/11/3,12:30:00,0,0,0,0,,0,0,0,0
2002/11/3,12:45:00,0,0,0,0,,0,0,0,0
2002/11/3,13:00:00,0,0,0,0,,0,0,0,0
2002/11/3,13:15:00,0,0,0,0,,0,0,0,0
2002/11/3,13:30:00,0,0,0,0,,0,0,0,0
2002/11/3,13:45:00,0,0,0,0,,0,0,0,0
2002/11/3,14:00:00,0,0,0,0,,0,0,0,0
2002/11/3,14:15:00,0,0,0,0,,0,0,0,0
2002/11/3,14:30:00,0,0,0,0,,0,0,0,0
2002/11/3,14:45:00,0,0,0,0,,0,0,0,0
2002/11/3,15:00:00,0,0,0,0,,0,0,0,0
2002/11/3,15:15:00,0,0,0,0,,0,0,0,0
2002/11/3,15:30:00,0,0,0,0,,0,0,0,0
2002/11/3,15:45:00,0,0,0,0,,0,0,0,0
2002/11/3,16:00:00,0,0,0,0,,0,0,0,0
2002/11/3,16:15:00,0,0,0,0,,0,0,0,0
2002/11/3,16:30:00,0,0,0,0,,0,0,0,0
2002/11/3,16:45:00,0,0,0,0,,0,0,0,0
2002/11/3,17:00:00,0,0,0,0,,0,0,0,0
2002/11/3,17:15:00,0,0,0,0,,0,0,0,0
2002/11/3,17:30:00,0,0,0,0,,0,0,0,0
2002/11/3,17:45:00,0,0,0,0,,0,0,0,0
2002/11/3,18:00:00,0,0,0,0,,0,0,0,0
2002/11/3,18:15:00,0,0,0,0,,0,0,0,0
2002/11/3,18:30:00,0,0,0,0,,0,0,0,0
2002/11/3,18:45:00,0,0,0,0,,0,0,0,0
2002/11/3,19:00:00,0,0,0,0,,0,0,0,0
2002/11/3,19:15:00,0.42,0,0.037,0,,15.4,0,1.4,0
2002/11/3,19:30:00,0.596,0,0,0,,21.8,0,0,0
2002/11/3,19:45:00,0.312,0,0.087,0,,11.5,0,3.2,0
2002/11/3,20:00:00,0.215,0,0.169,0,,7.9,0,6.2,0
2002/11/3,20:15:00,0,0,0.265,0,,0,0,9.7,0
2002/11/3,20:30:00,0.199,0,0.193,0,,7.3,0,7.1,0
2002/11/3,20:45:00,0,0,0.057,0,,0,0,2.1,0
2002/11/3,21:00:00,0,0,0,0,,0,0,0,0
2002/11/3,21:15:00,0,0,0,0,,0,0,0,0
2002/11/3,21:30:00,0,0,0,0,,0,0,0,0
2002/11/3,21:45:00,0,0,0,0,,0,0,0,0
2002/11/3,22:00:00,0.159,0,0.17,0,,5.8,0,6.2,0
2002/11/3,22:15:00,0,0,0.247,0,,0,0,9.1,0
2002/11/3,22:30:00,0,0,0.227,0,,0,0,8.3,0
2002/11/3,22:45:00,0,0,0.223,0,,0,0,8.2,0
2002/11/3,23:00:00,0,0,0.028,0,,0,0,1,0
2002/11/3,23:15:00,0,0,0,0,,0,0,0,0
2002/11/3,23:30:00,0,0,0,0,,0,0,0,0
2002/11/3,23:45:00,0,0,0,0,,0,0,0,0
2002/11/4,0:00:00,0,0,0,0,,0,0,0,0
2002/11/4,0:15:00,0,0,0,0,,0,0,0,0
2002/11/4,0:30:00,0,0,0,0,,0,0,0,0
2002/11/4,0:45:00,0,0,0,0,,0,0,0,0
2002/11/4,1:00:00,0,0,0,0,,0,0,0,0
2002/11/4,1:15:00,0,0,0,0,,0,0,0,0
2002/11/4,1:30:00,0,0,0,0,,0,0,0,0
2002/11/4,1:45:00,0,0,0,0,,0,0,0,0
2002/11/4,2:00:00,0,0,0,0,,0,0,0,0
2002/11/4,2:15:00,0,0,0,0,,0,0,0,0
2002/11/4,2:30:00,0,0,0,0,,0,0,0,0
2002/11/4,2:45:00,0,0,0,0,,0,0,0,0
2002/11/4,3:00:00,0,0,0,0,,0,0,0,0
2002/11/4,3:15:00,0,0,0,0,,0,0,0,0
2002/11/4,3:30:00,0,0,0,0,,0,0,0,0
2002/11/4,3:45:00,0,0,0,0,,0,0,0,0
2002/11/4,4:00:00,0,0,0,0,,0,0,0,0
2002/11/4,4:15:00,0,0,0,0,,0,0,0,0
2002/11/4,4:30:00,0,0,0,0,,0,0,0,0
2002/11/4,4:45:00,0,0,0,0,,0,0,0,0
2002/11/4,5:00:00,0,0,0,0,,0,0,0,0
2002/11/4,5:15:00,0,0,0,0,,0,0,0,0
2002/11/4,5:30:00,0,0,0,0,,0,0,0,0
2002/11/4,5:45:00,0,0,0,0,,0,0,0,0
2002/11/4,6:00:00,0.318,0,0.043,0,,11.6,0,1.6,0
2002/11/4,6:15:00,0,0,0.308,0,,0,0,11.4,0
2002/11/4,6:30:00,0,0,0.225,0,,0,0,8.3,0
2002/11/4,6:45:00,0,0,0.19,0,,0,0,7,0
2002/11/4,7:00:00,0,0,0.163,0,,0,0,6,0
2002/11/4,7:15:00,0,0,0.218,0,,0,0,8,0
2002/11/4,7:30:00,0,0,0,0,,0,0,0,0
2002/11/4,7:45:00,0,0,0,0,,0,0,0,0
2002/11/4,8:00:00,0,0,0,0,,0,0,0,0
2002/11/4,8:15:00,0,0,0,0,,0,0,0,0
2002/11/4,8:30:00,0,0,0,0,,0,0,0,0
2002/11/4,8:45:00,0,0,0,0,,0,0,0,0
2002/11/4,9:00:00,0,0,0,0,,0,0,0,0
2002/11/4,9:15:00,0,0,0,0,,0,0,0,0
2002/11/4,9:30:00,0,0,0,0,,0,0,0,0
2002/11/4,9:45:00,0,0,0,0,,0,0,0,0
2002/11/4,10:00:00,0,0,0,0,,0,0,0,0
2002/11/4,10:15:00,0,0,0,0,,0,0,0,0
2002/11/4,10:30:00,0,0,0,0,,0,0,0,0
2002/11/4,10:45:00,0,0,0,0,,0,0,0,0
2002/11/4,11:00:00,0,0,0,0,,0,0,0,0
2002/11/4,11:15:00,0,0,0,0,,0,0,0,0
2002/11/4,11:30:00,0,0,0,0,,0,0,0,0
2002/11/4,11:45:00,0,0,0,0,,0,0,0,0
2002/11/4,12:00:00,0,0,0,0,,0,0,0,0
2002/11/4,12:15:00,0,0,0,0,,0,0,0,0
2002/11/4,12:30:00,0,0,0,0,,0,0,0,0
2002/11/4,12:45:00,0,0,0,0,,0,0,0,0
2002/11/4,13:00:00,0,0,0,0,,0,0,0,0
2002/11/4,13:15:00,0,0,0,0,,0,0,0,0
2002/11/4,13:30:00,0,0,0,0,,0,0,0,0
2002/11/4,13:45:00,0,0,0,0,,0,0,0,0
2002/11/4,14:00:00,0,0,0,0,,0,0,0,0
2002/11/4,14:15:00,0,0,0,0,,0,0,0,0
2002/11/4,14:30:00,0,0,0,0,,0,0,0,0
2002/11/4,14:45:00,0,0,0,0,,0,0,0,0
2002/11/4,15:00:00,0,0,0,0,,0,0,0,0
2002/11/4,15:15:00,0,0,0,0,,0,0,0,0
2002/11/4,15:30:00,0,0,0,0,,0,0,0,0
2002/11/4,15:45:00,0,0,0,0,,0,0,0,0
2002/11/4,16:00:00,0,0,0,0,,0,0,0,0
2002/11/4,16:15:00,0,0,0,0,,0,0,0,0
2002/11/4,16:30:00,0,0,0,0,,0,0,0,0
2002/11/4,16:45:00,0,0,0,0,,0,0,0,0
2002/11/4,17:00:00,0,0,0,0,,0,0,0,0
2002/11/4,17:15:00,0,0,0,0,,0,0,0,0
2002/11/4,17:30:00,0,0,0,0,,0,0,0,0
2002/11/4,17:45:00,0,0,0,0,,0,0,0,0
2002/11/4,18:00:00,0,0,0,0,,0,0,0,0
2002/11/4,18:15:00,0,0,0,0,,0,0,0,0
2002/11/4,18:30:00,0,0,0,0,,0,0,0,0
2002/11/4,18:45:00,0.579,0,0.108,0,,21.2,0,4,0
2002/11/4,19:00:00,0.99,0,0,0,,36.4,0,0,0
2002/11/4,19:15:00,0.311,0,0.069,0,,11.4,0,2.5,0
2002/11/4,19:30:00,0,0,0.189,0,,0,0,6.9,0
2002/11/4,19:45:00,0,0,0,0,,0,0,0,0
2002/11/4,20:00:00,0,0,0,0,,0,0,0,0
2002/11/4,20:15:00,0,0,0,0,,0,0,0,0
2002/11/4,20:30:00,0,0,0,0,,0,0,0,0
2002/11/4,20:45:00,0,0,0.06,0,,0,0,2.2,0
2002/11/4,21:00:00,0.211,0,0.11,0,,7.7,0,4,0
2002/11/4,21:15:00,0,0,0.023,0,,0,0,0.9,0
2002/11/4,21:30:00,0,0,0,0,,0,0,0,0
2002/11/4,21:45:00,0,0,0,0,,0,0,0,0
2002/11/4,22:00:00,0,0,0,0,,0,0,0,0
2002/11/4,22:15:00,0,0,0,0,,0,0,0,0
2002/11/4,22:30:00,0,0,0,0,,0,0,0,0
2002/11/4,22:45:00,0,0,0,0,,0,0,0,0
2002/11/4,23:00:00,0,0,0,0,,0,0,0,0
2002/11/4,23:15:00,0,0,0,0,,0,0,0,0
2002/11/4,23:30:00,0,0,0,0,,0,0,0,0
2002/11/4,23:45:00,0,0,0,0,,0,0,0,0
2002/11/5,0:00:00,0,0,0,0,,0,0,0,0
2002/11/5,0:15:00,0,0,0,0,,0,0,0,0
2002/11/5,0:30:00,0,0,0,0,,0,0,0,0
2002/11/5,0:45:00,0,0,0,0,,0,0,0,0
2002/11/5,1:00:00,0,0,0,0,,0,0,0,0
2002/11/5,1:15:00,0,0,0,0,,0,0,0,0
2002/11/5,1:30:00,0,0,0,0,,0,0,0,0
2002/11/5,1:45:00,0,0,0,0,,0,0,0,0
2002/11/5,2:00:00,0,0,0,0,,0,0,0,0
2002/11/5,2:15:00,0,0,0,0,,0,0,0,0
2002/11/5,2:30:00,0,0,0,0,,0,0,0,0
2002/11/5,2:45:00,0,0,0,0,,0,0,0,0
2002/11/5,3:00:00,0,0,0,0,,0,0,0,0
2002/11/5,3:15:00,0,0,0,0,,0,0,0,0
2002/11/5,3:30:00,0,0,0,0,,0,0,0,0
2002/11/5,3:45:00,0,0,0,0,,0,0,0,0
2002/11/5,4:00:00,0,0,0,0,,0,0,0,0
2002/11/5,4:15:00,0,0,0,0,,0,0,0,0
2002/11/5,4:30:00,0,0,0,0,,0,0,0,0
2002/11/5,4:45:00,0,0,0,0,,0,0,0,0
2002/11/5,5:00:00,0,0,0,0,,0,0,0,0
2002/11/5,5:15:00,0,0,0,0,,0,0,0,0
2002/11/5,5:30:00,0,0,0,0,,0,0,0,0
2002/11/5,5:45:00,0,0,0,0,,0,0,0,0
2002/11/5,6:00:00,0.151,0,0.172,0,,5.5,0,6.3,0
2002/11/5,6:15:00,0,0,0.313,0,,0,0,11.5,0
2002/11/5,6:30:00,0,0,0.244,0,,0,0,8.9,0
2002/11/5,6:45:00,0,0,0.226,0,,0,0,8.4,0
2002/11/5,7:00:00,0,0,0.225,0,,0,0,8.3,0
2002/11/5,7:15:00,0,0,0.149,0,,0,0,5.5,0
2002/11/5,7:30:00,0,0,0,0,,0,0,0,0
2002/11/5,7:45:00,0,0,0,0,,0,0,0,0
2002/11/5,8:00:00,0,0,0,0,,0,0,0,0
2002/11/5,8:15:00,0,0,0,0,,0,0,0,0
2002/11/5,8:30:00,0,0,0,0,,0,0,0,0
2002/11/5,8:45:00,0,0,0,0,,0,0,0,0
2002/11/5,9:00:00,0,0,0,0,,0,0,0,0
2002/11/5,9:15:00,0,0,0,0,,0,0,0,0
2002/11/5,9:30:00,0,0,0,0,,0,0,0,0
2002/11/5,9:45:00,0,0,0,0,,0,0,0,0
2002/11/5,10:00:00,0,0,0,0,,0,0,0,0
2002/11/5,10:15:00,0,0,0,0,,0,0,0,0
2002/11/5,10:30:00,0,0,0,0,,0,0,0,0
2002/11/5,10:45:00,0,0,0,0,,0,0,0,0
2002/11/5,11:00:00,0,0,0,0,,0,0,0,0
2002/11/5,11:15:00,0,0,0,0,,0,0,0,0
2002/11/5,11:30:00,0,0,0,0,,0,0,0,0
2002/11/5,11:45:00,0,0,0,0,,0,0,0,0
2002/11/5,12:00:00,0,0,0,0,,0,0,0,0
2002/11/5,12:15:00,0,0,0,0,,0,0,0,0
2002/11/5,12:30:00,0,0,0,0,,0,0,0,0
2002/11/5,12:45:00,0,0,0,0,,0,0,0,0
2002/11/5,13:00:00,0,0,0,0,,0,0,0,0
2002/11/5,13:15:00,0,0,0,0,,0,0,0,0
2002/11/5,13:30:00,0,0,0,0,,0,0,0,0
2002/11/5,13:45:00,0,0,0,0,,0,0,0,0
2002/11/5,14:00:00,0,0,0,0,,0,0,0,0
2002/11/5,14:15:00,0,0,0,0,,0,0,0,0
2002/11/5,14:30:00,0,0,0,0,,0,0,0,0
2002/11/5,14:45:00,0,0,0,0,,0,0,0,0
2002/11/5,15:00:00,0,0,0,0,,0,0,0,0
2002/11/5,15:15:00,0,0,0,0,,0,0,0,0
2002/11/5,15:30:00,0,0,0,0,,0,0,0,0
2002/11/5,15:45:00,0,0,0,0,,0,0,0,0
2002/11/5,16:00:00,0,0,0,0,,0,0,0,0
2002/11/5,16:15:00,0,0,0.029,0,,0,0,1.1,0
2002/11/5,16:30:00,0.305,0,0.148,0,,11.2,0,5.4,0
2002/11/5,16:45:00,0,0,0.257,0,,0,0,9.4,0
2002/11/5,17:00:00,0,0,0.235,0,,0,0,8.7,0
2002/11/5,17:15:00,0,0,0.231,0,,0,0,8.4,0
2002/11/5,17:30:00,0.36,0,0.09,0,,13.2,0,3.3,0
2002/11/5,17:45:00,0.528,0,0.079,0,,19.3,0,2.9,0
2002/11/5,18:00:00,0,0,0.083,0,,0,0,3,0
2002/11/5,18:15:00,0,0,0,0,,0,0,0,0
2002/11/5,18:30:00,0,0,0.072,0,,0,0,2.6,0
2002/11/5,18:45:00,0,0,0,0,,0,0,0,0
2002/11/5,19:00:00,0,0,0.019,0,,0,0,0.7,0
2002/11/5,19:15:00,0,0,0,0,,0,0,0,0
2002/11/5,19:30:00,0,0,0,0,,0,0,0,0
2002/11/5,19:45:00,0,0,0.056,0,,0,0,2.1,0
2002/11/5,20:00:00,0,0,0.032,0,,0,0,1.2,0
2002/11/5,20:15:00,0,0,0.014,0,,0,0,0.5,0
2002/11/5,20:30:00,0.155,0,0.194,0,,5.7,0,7.1,0
2002/11/5,20:45:00,0,0,0.225,0,,0,0,8.2,0
2002/11/5,21:00:00,0,0,0.177,0,,0,0,6.4,0
2002/11/5,21:15:00,0,0,0.194,0,,0,0,7.1,0
2002/11/5,21:30:00,0,0,0.234,0,,0,0,8.5,0
2002/11/5,21:45:00,0,0,0.212,0,,0,0,7.8,0
2002/11/5,22:00:00,0,0,0.069,0,,0,0,2.5,0
2002/11/5,22:15:00,0,0,0,0,,0,0,0,0
2002/11/5,22:30:00,0,0,0,0,,0,0,0,0
2002/11/5,22:45:00,0,0,0,0,,0,0,0,0
2002/11/5,23:00:00,0,0,0,0,,0,0,0,0
2002/11/5,23:15:00,0,0,0,0,,0,0,0,0
2002/11/5,23:30:00,0,0,0,0,,0,0,0,0
2002/11/5,23:45:00,0,0,0,0,,0,0,0,0
2002/11/6,0:00:00,0,0,0,0,,0,0,0,0
2002/11/6,0:15:00,0,0,0,0,,0,0,0,0
2002/11/6,0:30:00,0,0,0,0,,0,0,0,0
2002/11/6,0:45:00,0,0,0,0,,0,0,0,0
2002/11/6,1:00:00,0,0,0,0,,0,0,0,0
2002/11/6,1:15:00,0,0,0,0,,0,0,0,0
2002/11/6,1:30:00,0,0,0,0,,0,0,0,0
2002/11/6,1:45:00,0,0,0,0,,0,0,0,0
2002/11/6,2:00:00,0,0,0,0,,0,0,0,0
2002/11/6,2:15:00,0,0,0,0,,0,0,0,0
2002/11/6,2:30:00,0,0,0,0,,0,0,0,0
2002/11/6,2:45:00,0,0,0,0,,0,0,0,0
2002/11/6,3:00:00,0,0,0,0,,0,0,0,0
2002/11/6,3:15:00,0,0,0,0,,0,0,0,0
2002/11/6,3:30:00,0,0,0,0,,0,0,0,0
2002/11/6,3:45:00,0,0,0,0,,0,0,0,0
2002/11/6,4:00:00,0,0,0,0,,0,0,0,0
2002/11/6,4:15:00,0,0,0,0,,0,0,0,0
2002/11/6,4:30:00,0,0,0,0,,0,0,0,0
2002/11/6,4:45:00,0,0,0,0,,0,0,0,0
2002/11/6,5:00:00,0,0,0,0,,0,0,0,0
2002/11/6,5:15:00,0,0,0,0,,0,0,0,0
2002/11/6,5:30:00,0,0,0,0,,0,0,0,0
2002/11/6,5:45:00,0,0,0,0,,0,0,0,0
2002/11/6,6:00:00,0,0,0.42,0,,0,0,15.5,0
2002/11/6,6:15:00,0,0,0.279,0,,0,0,10.3,0
2002/11/6,6:30:00,0,0,0.241,0,,0,0,8.9,0
2002/11/6,6:45:00,0,0,0.22,0,,0,0,8.1,0
2002/11/6,7:00:00,0,0,0.205,0,,0,0,7.5,0
2002/11/6,7:15:00,0,0,0.201,0,,0,0,7.4,0
2002/11/6,7:30:00,0,0,0.065,0,,0,0,2.4,0
2002/11/6,7:45:00,0,0,0,0,,0,0,0,0
2002/11/6,8:00:00,0,0,0,0,,0,0,0,0
2002/11/6,8:15:00,0,0,0,0,,0,0,0,0
2002/11/6,8:30:00,0,0,0,0,,0,0,0,0
2002/11/6,8:45:00,0,0,0,0,,0,0,0,0
2002/11/6,9:00:00,0,0,0,0,,0,0,0,0
2002/11/6,9:15:00,0,0,0,0,,0,0,0,0
2002/11/6,9:30:00,0,0,0,0,,0,0,0,0
2002/11/6,9:45:00,0,0,0,0,,0,0,0,0
2002/11/6,10:00:00,0,0,0,0,,0,0,0,0
2002/11/6,10:15:00,0,0,0,0,,0,0,0,0
2002/11/6,10:30:00,0,0,0,0,,0,0,0,0
2002/11/6,10:45:00,0,0,0,0,,0,0,0,0
2002/11/6,11:00:00,0,0,0,0,,0,0,0,0
2002/11/6,11:15:00,0,0,0,0,,0,0,0,0
2002/11/6,11:30:00,0,0,0,0,,0,0,0,0
2002/11/6,11:45:00,0,0,0,0,,0,0,0,0
2002/11/6,12:00:00,0,0,0,0,,0,0,0,0
2002/11/6,12:15:00,0,0,0,0,,0,0,0,0
2002/11/6,12:30:00,0,0,0,0,,0,0,0,0
2002/11/6,12:45:00,0,0,0,0,,0,0,0,0
2002/11/6,13:00:00,0,0,0,0,,0,0,0,0
2002/11/6,13:15:00,0,0,0,0,,0,0,0,0
2002/11/6,13:30:00,0,0,0,0,,0,0,0,0
2002/11/6,13:45:00,0,0,0,0,,0,0,0,0
2002/11/6,14:00:00,0,0,0,0,,0,0,0,0
2002/11/6,14:15:00,0,0,0,0,,0,0,0,0
2002/11/6,14:30:00,0,0,0,0,,0,0,0,0
2002/11/6,14:45:00,0,0,0,0,,0,0,0,0
2002/11/6,15:00:00,0,0,0,0,,0,0,0,0
2002/11/6,15:15:00,0,0,0,0,,0,0,0,0
2002/11/6,15:30:00,0,0,0,0,,0,0,0,0
2002/11/6,15:45:00,0,0,0,0,,0,0,0,0
2002/11/6,16:00:00,0,0,0,0,,0,0,0,0
2002/11/6,16:15:00,0,0,0,0,,0,0,0,0
2002/11/6,16:30:00,0,0,0,0,,0,0,0,0
2002/11/6,16:45:00,0,0,0,0,,0,0,0,0
2002/11/6,17:00:00,0,0,0,0,,0,0,0,0
2002/11/6,17:15:00,0,0,0,0,,0,0,0,0
2002/11/6,17:30:00,0.404,0,0.112,0,,14.8,0,4.1,0
2002/11/6,17:45:00,0,0,0.24,0,,0,0,8.8,0
2002/11/6,18:00:00,0,0,0.145,0,,0,0,5.4,0
2002/11/6,18:15:00,0,0,0.053,0,,0,0,1.9,0
2002/11/6,18:30:00,0.154,0,0.225,0,,5.7,0,8.2,0
2002/11/6,18:45:00,0,0,0.245,0,,0,0,9,0
2002/11/6,19:00:00,0,0,0.217,0,,0,0,7.9,0
2002/11/6,19:15:00,0,0,0.14,0,,0,0,5.1,0
2002/11/6,19:30:00,0,0,0,0,,0,0,0,0
2002/11/6,19:45:00,0,0,0.15,0,,0,0,5.5,0
2002/11/6,20:00:00,0,0,0.036,0,,0,0,1.3,0
2002/11/6,20:15:00,0,0,0.246,0,,0,0,9,0
2002/11/6,20:30:00,0,0,0.243,0,,0,0,8.8,0
2002/11/6,20:45:00,0,0,0.208,0,,0,0,7.6,0
2002/11/6,21:00:00,0,0,0.135,0,,0,0,5,0
2002/11/6,21:15:00,0,0,0.176,0,,0,0,6.5,0
2002/11/6,21:30:00,0,0,0.16,0,,0,0,5.9,0
2002/11/6,21:45:00,0,0,0.134,0,,0,0,4.9,0
2002/11/6,22:00:00,0,0,0.214,0,,0,0,7.9,0
2002/11/6,22:15:00,0,0,0.072,0,,0,0,2.7,0
2002/11/6,22:30:00,0,0,0,0,,0,0,0,0
2002/11/6,22:45:00,0,0,0,0,,0,0,0,0
2002/11/6,23:00:00,0,0,0,0,,0,0,0,0
2002/11/6,23:15:00,0,0,0,0,,0,0,0,0
2002/11/6,23:30:00,0,0,0,0,,0,0,0,0
2002/11/6,23:45:00,0,0,0,0,,0,0,0,0
2002/11/7,0:00:00,0,0,0,0,,0,0,0,0
2002/11/7,0:15:00,0,0,0,0,,0,0,0,0
2002/11/7,0:30:00,0,0,0,0,,0,0,0,0
2002/11/7,0:45:00,0,0,0,0,,0,0,0,0
2002/11/7,1:00:00,0,0,0,0,,0,0,0,0
2002/11/7,1:15:00,0,0,0,0,,0,0,0,0
2002/11/7,1:30:00,0,0,0,0,,0,0,0,0
2002/11/7,1:45:00,0,0,0,0,,0,0,0,0
2002/11/7,2:00:00,0,0,0,0,,0,0,0,0
2002/11/7,2:15:00,0,0,0,0,,0,0,0,0
2002/11/7,2:30:00,0,0,0,0,,0,0,0,0
2002/11/7,2:45:00,0,0,0,0,,0,0,0,0
2002/11/7,3:00:00,0,0,0,0,,0,0,0,0
2002/11/7,3:15:00,0,0,0,0,,0,0,0,0
2002/11/7,3:30:00,0,0,0,0,,0,0,0,0
2002/11/7,3:45:00,0,0,0,0,,0,0,0,0
2002/11/7,4:00:00,0,0,0,0,,0,0,0,0
2002/11/7,4:15:00,0,0,0,0,,0,0,0,0
2002/11/7,4:30:00,0,0,0,0,,0,0,0,0
2002/11/7,4:45:00,0,0,0,0,,0,0,0,0
2002/11/7,5:00:00,0,0,0,0,,0,0,0,0
2002/11/7,5:15:00,0,0,0,0,,0,0,0,0
2002/11/7,5:30:00,0,0,0,0,,0,0,0,0
2002/11/7,5:45:00,0,0,0,0,,0,0,0,0
2002/11/7,6:00:00,0,0,0.327,0,,0,0,12,0
2002/11/7,6:15:00,0.151,0,0.175,0,,5.5,0,6.4,0
2002/11/7,6:30:00,0,0,0.252,0,,0,0,9.3,0
2002/11/7,6:45:00,0,0,0.221,0,,0,0,8,0
2002/11/7,7:00:00,0,0,0.208,0,,0,0,7.7,0
2002/11/7,7:15:00,0,0,0.201,0,,0,0,7.4,0
2002/11/7,7:30:00,0,0,0.138,0,,0,0,5,0
2002/11/7,7:45:00,0,0,0,0,,0,0,0,0
2002/11/7,8:00:00,0,0,0,0,,0,0,0,0
2002/11/7,8:15:00,0,0,0,0,,0,0,0,0
2002/11/7,8:30:00,0,0,0,0,,0,0,0,0
2002/11/7,8:45:00,0,0,0,0,,0,0,0,0
2002/11/7,9:00:00,0,0,0,0,,0,0,0,0
2002/11/7,9:15:00,0,0,0,0,,0,0,0,0
2002/11/7,9:30:00,0,0,0,0,,0,0,0,0
2002/11/7,9:45:00,0,0,0,0,,0,0,0,0
2002/11/7,10:00:00,0,0,0,0,,0,0,0,0
2002/11/7,10:15:00,0,0,0,0,,0,0,0,0
2002/11/7,10:30:00,0,0,0,0,,0,0,0,0
2002/11/7,10:45:00,0,0,0,0,,0,0,0,0
2002/11/7,11:00:00,0,0,0,0,,0,0,0,0
2002/11/7,11:15:00,0,0,0,0,,0,0,0,0
2002/11/7,11:30:00,0,0,0,0,,0,0,0,0
2002/11/7,11:45:00,0,0,0,0,,0,0,0,0
2002/11/7,12:00:00,0,0,0,0,,0,0,0,0
2002/11/7,12:15:00,0,0,0,0,,0,0,0,0